Terminal Aerodrome Forecast
Issued by NWS Medford, OR

Home | Current Version | Previous Version | Text Only | Print | Product List | Glossary On
Versions: 1 2 3 4 5 6 7 8 9 10 11 12 13 14 15 16 17 18 19
000
FTUS46 KMFR 241600 AAB
TAFMFR
TAF AMD
KMFR 241601Z 2416/2512 VRB03KT P6SM -SHRA BKN003 OVC012
     FM241700 15003KT P6SM -RA SCT015 OVC035
     FM241900 15005KT P6SM VCSH SCT020 BKN050 OVC080
     FM242100 15010KT P6SM SCT080=

USA.gov is the U.S. government's official web portal to all federal, state and local government web resources and services.